Location: Buckenweiler
(49.0667°N, 10.2500°E)
Time: 18:21:46
(UTC+00:00)

Cosmos 1461 - Pass Details

Date: 18 January 2026
Orbit: 426 x 502 km, 65.0° (Epoch: 16 February)

Event Time Altitude Azimuth Distance (km) Brightness Sun altitude
Rises 06:06:35 0° 222° (SW) 2,591 6.0 -9.5°
Reaches altitude 10° 06:08:44 10° 224° (SW) 1,718 5.1 -9.2°
Maximum altitude 06:12:35 74° 309° (NW) 535 2.6 -8.6°
Drops below altitude 10° 06:16:29 10° 36° (NE) 1,740 5.6 -8.0°
Sets 06:18:41 0° 38° (NE) 2,627 6.5 -7.7°
